Location: Nelson
(41.2830°S, 173.2830°E)
Time: 15:28:10
(UTC+12:00)

SL-16 R/B - Pass Details

Date: 14 May 2021
Orbit: 842 x 847 km, 71.0° (Epoch: 19 June)

Event Time Altitude Azimuth Distance (km) Brightness Sun altitude
Rises 20:03:29 0° 327° (NNW) 3,393 5.7 -30.9°
Reaches altitude 10° 20:05:57 10° 324° (NW) 2,466 5.0 -31.3°
Enters shadow 20:10:58 57° 271° (W) 995 2.7 -32.3°
